www.pogodaiklimat.ru

ПОГОДА в Форт Силл, OK

  • Прогноз погоды в Форт Силл
  • Монитор погоды в Форт Силл
  • Климат в Форт Силл

АРХИВ ПОГОДЫ в Форт Силл

Время (UTC), дата Ветер
(напр.,м/с)
 
Видим.   Явления Облачность Т
(С)
Тd
(С)
f
(%)
Тe
(С)
Тes
(С)
Комфортность

P
(гПа)

Po
(гПа)
Тmin
(С)
Tmax
(С)
R
(мм)
SD
(см)
01:56 25.03 С  16 км    ясно  +12.6  +10.8  89  +11  +11    1018.0  975.2         
02:56 25.03 С  16 км    ясно  +12.2  +11.4  95  +11  +11    1018.3  975.5         
03:56 25.03 С  16 км    ясно  +9.8  +9.8  100  +7  +7    1018.0  975.2         
04:56 25.03 СВ  16 км    ясно  +10.8  +10.8  100  +8  +8    1017.6  974.9  +9.5  +20.0     
05:56 25.03 С  16 км    ясно  +10.7  +10.7  100  +7  +7    1017.6  974.9         
06:56 25.03 С  16 км    ясно  +10.3  +10.3  100  +7  +7    1018.7  975.8         
08:56 25.03 С  16 км    ясно  +8.9  +8.9  100  +6  +6    1019.7  976.8         
09:56 25.03 С  16 км    ясно  +8.9  +8.9  100  +6  +6    1020.7  977.8         
10:56 25.03 С  16 км    ясно  +8.8  +8.8  100  +6  +6    1021.4  978.4  +7.9  +10.7     
11:56 25.03 С  16 км    ясно  +8.4  +8.4  100  +7  +7    1022.6  979.4         
12:56 25.03 С  16 км    ясно  +10.7  +10.7  100  +7  +7    1023.6  980.4         
13:41 25.03 С  16 км    8/8 420 м  +12.0  +12.0  100  +9  +9    1024.6  981.4         
14:56 25.03 СВ  16 км    10/10 390 м  +10.9  +10.9  100  +7  +7    1025.6  982.3         
15:41 25.03 СВ  16 км    10/10 450 м  +12.0  +11.0  94  +9  +9    1026.0  982.7         
15:56 25.03 С  16 км    10/10 510 м  +11.7  +10.8  94  +9  +9    1026.0  982.7         
16:51 25.03 С  16 км    10/10 630 м  +13.0  +10.0  82  +11  +11    1025.6  982.3         
16:56 25.03 С  16 км    10/10 630 м  +13.1  +9.9  81  +11  +11    1025.6  982.3  +8.4  +13.1     
17:56 25.03 С  6
{8} 
16 км    10/10 690 м  +14.3  +9.9  75  +12  +12    1025.3  982.0         
18:56 25.03 СВ  4
{8} 
16 км    8/8 780 м  +15.5  +9.8  69  +14  +16    1024.6  981.4         
19:01 25.03 С  6
{8} 
16 км    5/5 810 м  +16.0  +10.0  68  +15  +17    1024.6  981.4         
19:56 25.03 С  16 км    ясно  +16.6  +9.5  63  +16  +24    1023.9  980.7         
20:56 25.03 С  16 км    ясно  +17.4  +9.5  60  +17  +20    1023.5  980.4         
21:56 25.03 СВ  16 км    ясно  +17.7  +9.6  59  +17  +20    1023.5  980.4         
22:56 25.03 СВ  16 км    ясно  +16.4  +9.3  63  +16  +18    1023.9  980.7  +13.1  +18.3     
23:56 25.03 СВ  16 км    ясно  +13.8  +9.0  73  +12  +12    1024.3  981.0         
00:56 26.03 СВ  16 км    ясно  +11.6  +8.6  82  +9  +9    1025.0  981.7         
01:56 26.03 СВ  16 км    ясно  +10.2  +9.1  93  +8  +8    1026.0  982.7         
02:56 26.03 СВ  16 км    ясно  +9.2  +9.0  99  +6  +6    1026.8  983.3         
03:56 26.03 С  16 км    ясно  +7.1  +7.1  100  +4  +4    1026.8  983.3         
04:56 26.03 С  16 км    ясно  +7.1  +7.1  100  +3  +3    1026.8  983.3  +6.6  +16.3     
05:56 26.03 СВ  16 км    ясно  +7.0  +7.0  100  +4  +4    1026.0  982.7         
06:56 26.03 СВ  16 км    ясно  +6.0  +6.0  100  +2  +2    1026.4  983.0         
07:56 26.03 С  16 км    ясно  +5.6  +5.6  100  +2  +2    1026.7  983.3         
08:56 26.03 С  16 км    ясно  +4.8  +4.8  100  +1  +1    1026.4  983.0         
09:56 26.03   16 км    ясно  +5.8  +5.8  100  +5  +5    1027.0  983.6         
10:56 26.03 С  10 км  дымка  ясно  +4.3  +4.3  100  0  0    1027.1  983.6  +4.0  +7.2     
11:56 26.03 С  6 км  дымка  ясно  +4.9  +4.9  100  +1  +1    1027.9  984.3         
12:56 26.03 С  11 км    ясно  +8.6  +8.6  100  +6  +6    1028.8  985.3         
13:56 26.03 В  16 км    ясно  +11.6  +10.8  95  +11  +13    1029.1  985.6         
14:56 26.03 Ю  16 км    5/0 3000 м
[средняя] 
+14.7  +9.9  73  +14  +17    1029.0  985.6         
15:56 26.03 В  16 км    ясно  +15.9  +8.9  63  +15  +24    1029.0  985.6         
16:56 26.03 Ю  16 км    2/0 2850 м
[средняя] 
+17.1  +8.2  56  +17  +28    1028.0  984.6  +4.2  +17.2     
17:56 26.03 ЮВ  16 км    ясно  +18.5  +8.7  53  +19  +33  опасность
простуды 
1027.0  983.6         
18:56 26.03 З  16 км    ясно  +19.4  +9.3  52  +21  +35  комфорт  1025.9  982.7         
19:56 26.03 Ю  16 км    ясно  +20.1  +9.0  49  +21  +29  комфорт  1024.9  981.7         
20:56 26.03 Ю  16 км    ясно  +21.0  +8.9  46  +23  +32  комфорт  1024.2  981.0         
21:56 26.03 ЮВ  16 км    ясно  +20.6  +7.9  44  +22  +26  комфорт  1023.5  980.4         
22:56 26.03 ЮВ  16 км    ясно  +18.9  +8.5  51  +19  +21    1023.6  980.4  +16.9  +21.2     

 

Местоположение метеостанции Henry Post Army Airfield: широта 34.6000 долгота -98.4000 высота над уровнем моря 362 м.

В архиве по умолчанию представлена погода в Форт Силл за последние 1-2 суток. Обновление информации о фактической погоде в базе происходит ежечасно! Архивные данные за месяц целиком и за предыдущие месяцы Вы можете получить, выбрав интересующий диапазон дат из раскрывающегося списка и нажав кнопку "Ввод!".

Внимание! Архив погоды МЕТАР в базе сайта хранится не более 60 дней. Нет смысла пытаться выбрать более раннюю дату.

Внимание! Время в таблицах - всемирное. Для получения местного времени необходимо прибавить поправку, которая в Форт Силл равна -6 ч.

Ветер - указаны скорость ветра в м/с и направление, откуда дует ветер: С - северный, СВ - северо-восточный, В - восточный, ЮВ - юго-восточный, Ю - южный, ЮЗ - юго-западный, З - западный, СЗ - северо-западный.
Видимость - горизонтальная дальность видимости в метрах или километрах. При видимости от 1 до 10 км при отсутствии осадков обычно наблюдается дымка, при ухудшении видимости до 1 км и менее - туман. В сухую погоду видимость может ухудшаться дымом, пылью или мглою.
Атмосферные явления - указаны явления, наблюдавшиеся в указанный момент времени.
Облачность - указаны через наклонную черту верхняя и нижняя облачность в баллах и высота нижней границы облаков в метрах. Внимание: облачность, как и прочие метеорологические величины в США измеряются автоматическими метеостанциями. Указанные значения в баллах носят условный характер и показывают процент времени, в течение которого, в среднем, лазерный луч высотомера отражался от облаков обратно.
T - Температура воздуха - температура, измеренная на высоте 2 м над землей.
Td - Температура точки росы - температура, при понижении до которой содержащийся в воздухе водяной пар достигнет насыщения.
f - Относительная влажность воздуха - влажноcть воздуха, измеренная на высоте 2 м над землей.
Te - Эффективная температура - температура, которую ощущает одетый по сезону человек в тени. Характеристика душности погоды. При расчете учитывается влияние влажности воздуха и скорости ветра на теплоощущения человека.
Tes - Эффективная температура на солнце - температура, которую ощущает человек, с поправкой на солнечный нагрев. Характеристика знойности погоды. Зависит от высоты солнца над горизонтом, облачности и скорости ветра. Ночью, в пасмурную погоду, а также при ветре 12 м/с и более поправка равна нулю.
P - Атмосферное давление - приведенное к уровню моря атмосферное давление.
Po - Атмосферное давление - измеренное на уровне метеостанции атмосферное давление.
Tmin - Минимальная температура - минимум температуры воздуха на высоте 2 м над землей.
Tmax - Максимальная температура - максимум температуры воздуха на высоте 2 м над землей.
R - Количество осадков - Количество выпавших осадков за 3 или 6 часов, мм.
SD - Снежный покров - Высота снежного покрова, см.